Regional Weather Roundup
Issued by NWS

Home | Current Version | Previous Version | Text Only | Print | Product List | Glossary On
Versions: 1 2 3 4 5 6 7 8 9 10 11 12 13 14 15 16 17 18 19 20 21 22 23 24 25 26 27 28 29 30 31 32 33 34 35 36 37 38 39 40 41 42 43 44 45 46 47 48 49 50
000
ASUS43 KTOP 032259
RWRKS

WEATHER ROUNDUP FOR KANSAS
NATIONAL WEATHER SERVICE GOODLAND KS
600 PM CDT THU SEP 03 2015

NOTE:  "FAIR" INDICATES FEW OR NO CLOUDS BELOW 12,000 FEET WITH NO
SIGNIFICANT WEATHER AND/OR OBSTRUCTIONS TO VISIBILITY.

KSZ001>006-013>018-027>032-041>047-040000-
NORTHWEST KANSAS

CITY           SKY/WX    TMP DP  RH WIND       PRES   REMARKS
GOODLAND       CLOUDY    92  48  22 S15       29.80F
HAYS           PTSUNNY   97  57  26 S30G36    29.77S HX  95
HILL CITY      PTSUNNY   96  57  27 S23G31    29.75S HX  95
RUSSELL        PTSUNNY   96  58  27 S30G38    29.76F HX  95
$$

KSZ061>065-074>080-084>089-040000-
SOUTHWEST KANSAS

CITY           SKY/WX    TMP DP  RH WIND       PRES   REMARKS
DODGE CITY     CLOUDY    92  54  27 S25       29.82F
ELKHART          N/A     94  52  24 S15         N/A
GARDEN CITY    CLOUDY    97  54  23 S21       29.79F HX  95
GREAT BEND     PTSUNNY   93  59  31 S23G29    29.79S
LIBERAL        PTSUNNY   99  54  22 S18       29.82F HX  96
$$

KSZ066>073-081>083-090>101-040000-
SOUTHEAST KANSAS

CITY           SKY/WX    TMP DP  RH WIND       PRES   REMARKS
CHANUTE        SUNNY     86  69  56 S14       29.90F
COFFEYVILLE    SUNNY     86  69  56 S13       29.88F
HUTCHINSON     PTSUNNY   93  60  33 S23G30    29.83S
NEWTON         MOSUNNY   91  61  35 S18       29.88F
PARSONS        SUNNY     86  69  56 S7        29.90F
WICHITA INTL   PTSUNNY   91  62  37 S16G28    29.84S
WICHITA JABRA  MOSUNNY   88  63  43 S18G25    29.85S
WICHITA MCCONL MOSUNNY   90  63  40 SE16G23   29.85S
WINFIELD       MOSUNNY   90  65  43 S14G21    29.87F
$$

KSZ007>012-019>026-033>040-048>060-102>105-040000-
NORTHEAST KANSAS

CITY           SKY/WX    TMP DP  RH WIND       PRES   REMARKS
CONCORDIA      MOSUNNY   91  62  37 S16G26    29.80S
EMPORIA        SUNNY     89  65  44 S15       29.86S
LAWRENCE       SUNNY     89  65  44 S14G23    29.86F
MANHATTAN      SUNNY     94  64  37 S14       29.81F HX  95
OLATHE IND     SUNNY     87  68  52 S13G21    29.90S
OLATHE EXE     SUNNY     85  68  56 S14       29.89S
SALINA         MOSUNNY   95  62  33 S18G29    29.80S HX  96
TOPEKA BILLARD SUNNY     91  65  41 S14       29.85S
TOPEKA FORBES  SUNNY     90  66  45 S13G21    29.86S
$$



USA.gov is the U.S. government's official web portal to all federal, state and local government web resources and services.